When you browse on this site, cookies collect data to enhance your experience and personalize the content and advertising you see.
Visit our Privacy Policy to learn more. By continuing to use the site, you agree to this use of cookies and data.
  • In Romania
  • List of Countries
  • For 7 days
  • Water Temperature
  • Weather Map
  • Weather Widgets
  • user-avatar
    Login

    Hourly Weather Naftalan

    Today, 24 August, Saturday

    Time Temperature Precipitation Wind Pressure Humidity
    00:00 +27°C° 0 mm 3 mps 760 mmHg 71%
    01:00 +27°C° 0 mm 3 mps 760 mmHg 73%
    02:00 +27°C° 0 mm 2 mps 760 mmHg 75%
    03:00 +27°C° 0 mm 3 mps 760 mmHg 77%
    04:00 +27°C° 0 mm 2 mps 760 mmHg 75%
    05:00 +27°C° 0 mm 2 mps 760 mmHg 73%
    06:00 +28°C° 0 mm 1 mps 760 mmHg 72%
    07:00 +30°C° 0 mm 1 mps 760 mmHg 62%
    08:00 +32°C° 0 mm 2 mps 761 mmHg 52%
    09:00 +35°C° 0 mm 2 mps 761 mmHg 42%
    10:00 +36°C° 0 mm 3 mps 761 mmHg 39%
    11:00 +37°C° 0 mm 4 mps 760 mmHg 37%
    12:00 +39°C° 0 mm 5 mps 760 mmHg 34%
    13:00 +39°C° 0 mm 6 mps 760 mmHg 38%
    14:00 +38°C° 0 mm 6 mps 759 mmHg 41%
    15:00 +36°C° 0 mm 7 mps 759 mmHg 47%
    16:00 +35°C° 0 mm 6 mps 759 mmHg 52%
    17:00 +34°C° 0 mm 6 mps 760 mmHg 58%
    18:00 +32°C° 0 mm 5 mps 760 mmHg 63%
    19:00 +30°C° 0 mm 4 mps 760 mmHg 67%
    20:00 +29°C° 0 mm 3 mps 760 mmHg 70%
    21:00 +28°C° 0 mm 2 mps 761 mmHg 74%
    22:00 +28°C° 0 mm 2 mps 761 mmHg 72%
    23:00 +27°C° 0 mm 2 mps 761 mmHg 71%

    Tomorrow, 25 August, Sunday

    Time Temperature Precipitation Wind Pressure Humidity
    00:00 +27°C° 0 mm 2 mps 761 mmHg 69%
    01:00 +27°C° 0 mm 2 mps 761 mmHg 68%
    02:00 +26°C° 0 mm 2 mps 761 mmHg 68%
    03:00 +26°C° 0 mm 1 mps 761 mmHg 67%
    04:00 +26°C° 0 mm 1 mps 761 mmHg 65%
    05:00 +27°C° 0 mm 1 mps 761 mmHg 63%
    06:00 +27°C° 0 mm 1 mps 761 mmHg 61%
    07:00 +29°C° 0 mm 1 mps 761 mmHg 52%
    08:00 +32°C° 0 mm 2 mps 761 mmHg 43%
    09:00 +35°C° 0 mm 2 mps 761 mmHg 34%
    10:00 +36°C° 0 mm 3 mps 761 mmHg 33%
    11:00 +36°C° 0 mm 4 mps 761 mmHg 31%
    12:00 +37°C° 0 mm 5 mps 760 mmHg 30%
    13:00 +36°C° 0 mm 5 mps 760 mmHg 31%
    14:00 +36°C° 0 mm 6 mps 760 mmHg 31%
    15:00 +35°C° 0 mm 6 mps 760 mmHg 32%
    16:00 +34°C° 0 mm 5 mps 760 mmHg 38%
    17:00 +32°C° 0 mm 4 mps 760 mmHg 44%
    18:00 +30°C° 0 mm 4 mps 760 mmHg 50%
    19:00 +28°C° 0 mm 3 mps 760 mmHg 58%
    20:00 +27°C° 0 mm 2 mps 761 mmHg 65%
    21:00 +25°C° 0 mm 2 mps 761 mmHg 73%
    22:00 +25°C° 0 mm 2 mps 761 mmHg 70%
    23:00 +25°C° 0 mm 2 mps 761 mmHg 67%

    Day after tomorrow, 26 August, Monday

    Time Temperature Precipitation Wind Pressure Humidity
    00:00 +25°C° 0 mm 2 mps 761 mmHg 64%
    01:00 +25°C° 0 mm 3 mps 761 mmHg 62%
    02:00 +25°C° 0 mm 3 mps 761 mmHg 60%
    03:00 +25°C° 0 mm 3 mps 761 mmHg 58%
    04:00 +25°C° 0 mm 3 mps 761 mmHg 58%
    05:00 +25°C° 0 mm 3 mps 762 mmHg 57%
    06:00 +25°C° 0 mm 3 mps 762 mmHg 57%
    07:00 +28°C° 0 mm 4 mps 762 mmHg 47%
    08:00 +30°C° 0 mm 4 mps 762 mmHg 38%
    09:00 +34°C° 0 mm 5 mps 763 mmHg 29%
    10:00 +34°C° 0 mm 6 mps 763 mmHg 30%
    11:00 +35°C° 0 mm 7 mps 763 mmHg 31%
    12:00 +35°C° 0 mm 8 mps 762 mmHg 31%
    13:00 +35°C° 0 mm 9 mps 762 mmHg 34%
    14:00 +34°C° 0 mm 9 mps 762 mmHg 36%
    15:00 +34°C° 0 mm 9 mps 762 mmHg 38%
    16:00 +33°C° 0 mm 9 mps 762 mmHg 42%
    17:00 +32°C° 0 mm 8 mps 762 mmHg 46%
    18:00 +29°C° 0 mm 8 mps 763 mmHg 50%
    19:00 +29°C° 0 mm 7 mps 763 mmHg 54%
    20:00 +28°C° 0 mm 7 mps 764 mmHg 58%
    21:00 +27°C° 0 mm 6 mps 764 mmHg 62%
    22:00 +27°C° 0 mm 6 mps 764 mmHg 65%
    23:00 +26°C° 0 mm 6 mps 764 mmHg 67%

    27 August, Tuesday

    Time Temperature Precipitation Wind Pressure Humidity
    00:00 +26°C° 0 mm 6 mps 764 mmHg 69%
    01:00 +26°C° 0 mm 5 mps 764 mmHg 68%
    02:00 +26°C° 0 mm 5 mps 764 mmHg 66%
    03:00 +26°C° 0 mm 5 mps 764 mmHg 65%
    04:00 +25°C° 0 mm 4 mps 764 mmHg 63%
    05:00 +25°C° 0 mm 4 mps 764 mmHg 62%
    06:00 +24°C° 0 mm 3 mps 764 mmHg 60%
    07:00 +26°C° 0 mm 3 mps 764 mmHg 55%
    08:00 +28°C° 0 mm 4 mps 764 mmHg 49%
    09:00 +30°C° 0 mm 4 mps 764 mmHg 44%
    10:00 +32°C° 0 mm 5 mps 763 mmHg 43%
    11:00 +32°C° 0 mm 5 mps 763 mmHg 43%
    12:00 +33°C° 0 mm 6 mps 762 mmHg 42%
    13:00 +33°C° 0 mm 6 mps 762 mmHg 43%
    14:00 +32°C° 0 mm 6 mps 761 mmHg 44%
    15:00 +32°C° 0 mm 6 mps 761 mmHg 44%
    16:00 +30°C° 0 mm 5 mps 761 mmHg 49%
    17:00 +29°C° 0 mm 4 mps 761 mmHg 54%
    18:00 +28°C° 0 mm 3 mps 761 mmHg 59%
    19:00 +27°C° 0 mm 3 mps 761 mmHg 63%
    20:00 +26°C° 0 mm 2 mps 761 mmHg 66%
    21:00 +25°C° 0 mm 1 mps 761 mmHg 69%
    22:00 +25°C° 0 mm 1 mps 761 mmHg 72%
    23:00 +24°C° 0 mm 1 mps 761 mmHg 75%

    28 August, Wednesday

    Time Temperature Precipitation Wind Pressure Humidity
    00:00 +23°C° 0 mm 1 mps 760 mmHg 78%
    01:00 +23°C° 0 mm 1 mps 760 mmHg 79%
    02:00 +23°C° 0 mm 2 mps 760 mmHg 80%
    03:00 +23°C° 0 mm 2 mps 759 mmHg 81%
    04:00 +23°C° 0.1 mm 2 mps 760 mmHg 78%
    05:00 +24°C° 0.1 mm 2 mps 760 mmHg 75%
    06:00 +24°C° 0.1 mm 2 mps 760 mmHg 72%
    07:00 +26°C° 0 mm 3 mps 760 mmHg 63%
    08:00 +28°C° 0 mm 3 mps 760 mmHg 54%
    09:00 +30°C° 0 mm 3 mps 760 mmHg 45%
    10:00 +31°C° 0 mm 3 mps 760 mmHg 42%
    11:00 +33°C° 0 mm 4 mps 760 mmHg 38%
    12:00 +34°C° 0 mm 5 mps 760 mmHg 35%
    13:00 +33°C° 0 mm 5 mps 760 mmHg 36%
    14:00 +33°C° 0 mm 5 mps 760 mmHg 38%
    15:00 +33°C° 0 mm 6 mps 759 mmHg 39%
    16:00 +32°C° 0 mm 5 mps 760 mmHg 45%
    17:00 +30°C° 0 mm 4 mps 760 mmHg 50%
    18:00 +29°C° 0 mm 4 mps 760 mmHg 56%
    19:00 +28°C° 0 mm 4 mps 761 mmHg 60%
    20:00 +27°C° 0 mm 3 mps 761 mmHg 64%
    21:00 +26°C° 0 mm 3 mps 762 mmHg 68%
    22:00 +26°C° 0 mm 3 mps 762 mmHg 70%
    23:00 +25°C° 0 mm 2 mps 762 mmHg 71%

    29 August, Thursday

    Time Temperature Precipitation Wind Pressure Humidity
    00:00 +25°C° 0 mm 2 mps 762 mmHg 72%
    01:00 +25°C° 0 mm 2 mps 762 mmHg 73%
    02:00 +24°C° 0 mm 2 mps 762 mmHg 74%
    03:00 +24°C° 0 mm 1 mps 762 mmHg 75%
    04:00 +24°C° 0 mm 2 mps 762 mmHg 73%
    05:00 +25°C° 0 mm 2 mps 762 mmHg 71%
    06:00 +26°C° 0 mm 2 mps 762 mmHg 68%
    07:00 +27°C° 0 mm 2 mps 762 mmHg 61%
    08:00 +29°C° 0 mm 3 mps 762 mmHg 54%
    09:00 +30°C° 0 mm 3 mps 762 mmHg 47%
    10:00 +32°C° 0 mm 4 mps 762 mmHg 46%
    11:00 +32°C° 0 mm 5 mps 761 mmHg 44%
    12:00 +33°C° 0 mm 5 mps 761 mmHg 43%
    13:00 +32°C° 0 mm 6 mps 760 mmHg 45%
    14:00 +32°C° 0 mm 6 mps 760 mmHg 46%
    15:00 +32°C° 0 mm 6 mps 760 mmHg 47%
    16:00 +30°C° 0 mm 6 mps 760 mmHg 51%
    17:00 +29°C° 0 mm 5 mps 760 mmHg 54%
    18:00 +28°C° 0 mm 5 mps 760 mmHg 58%
    19:00 +27°C° 0 mm 4 mps 761 mmHg 61%
    20:00 +27°C° 0 mm 4 mps 761 mmHg 64%
    21:00 +26°C° 0 mm 4 mps 762 mmHg 67%
    22:00 +26°C° 0.1 mm 4 mps 762 mmHg 68%
    23:00 +26°C° 0.1 mm 5 mps 762 mmHg 70%
    Show more